Location: Gro�freden
(51.9333°N, 9.8833°E)
Time: 14:10:53
(UTC+00:00)

Daily predictions for brighter satellites

Satellite Brightness Start Highest point End
(mag) Time Altitude Azimuth Time Altitude Azimuth Time Altitude Azimuth
CENTAUR R/B 3.8 15:49:39 10° WNW 15:56:06 35° N 16:03:23 10° ENE
Feng Yun 1-1 Rocket 4.4 15:53:11 10° SE 15:58:29 51° ENE 16:03:43 10° N
SL-16 R/B 4.3 15:55:00 10° N 16:00:01 27° NW 16:05:02 10° WSW
H-2A R/B 3.4 15:57:35 10° SE 16:01:01 32° ENE 16:04:25 10° N
Cosmos 1867 4.1 15:55:46 10° WSW 16:01:10 58° NW 16:06:36 10° NE
YAOGAN 6 4.4 16:00:24 10° E 16:01:55 12° ENE 16:03:27 10° NNE
Cosmos 2369 4.4 15:57:04 10° S 16:02:12 37° ESE 16:07:23 10° NE
IRS-1C Rocket 4.2 15:57:49 10° SE 16:02:59 58° ENE 16:08:11 10° N
Cosmos 1697 Rocket 3.4 15:58:09 10° S 16:03:12 35° ESE 16:08:17 10° NE
Cosmos 2082 3.8 15:58:10 10° NNW 16:03:50 89° WSW 16:09:28 10° SSE
Cosmos 2034 Rocket 4.5 16:01:00 10° N 16:06:59 40° ENE 16:12:55 10° SE
Cosmos 2344 3.9 16:00:14 10° SW 16:07:45 73° NW 16:16:34 10° NE
Cosmos 1656 3.8 16:02:30 10° SSW 16:07:55 60° ESE 16:13:19 10° NE
Cosmos 1869 3.4 16:06:18 10° S 16:10:08 56° E 16:14:00 10° NNE
Envisat 3.7 16:06:29 10° ESE 16:10:57 32° ENE 16:15:26 10° N
Cosmos 1633 Rocket 3.4 16:09:31 10° N 16:13:46 43° ENE 16:18:00 10° SE
CZ-4B R/B 3.8 16:09:24 10° S 16:14:38 60° WSW 16:19:54 10° NNW
Cosmos 1151 Rocket 4.3 16:11:51 10° SE 16:15:11 21° E 16:18:31 10° NE
Sich 1 3.0 16:12:00 10° N 16:16:22 71° ENE 16:20:45 10° SSE
Okean-O 3.1 16:14:54 10° SE 16:19:01 39° ENE 16:23:10 10° N
Cosmos 2278 4.3 16:14:14 10° S 16:19:25 37° ESE 16:24:38 10° NE
ATLAS 3B R/B 3.6 16:14:28 10° NW 16:20:15 30° N 16:25:42 12° ENE
Cosmos 1844 Rocket 4.3 16:20:25 10° NNW 16:23:54 16° NNE 16:26:44 12° ENE
USA 238 DEB 4.3 16:17:42 10° NW 16:24:20 42° NNE 16:31:12 10° E
USA 238 4.3 16:17:48 10° NW 16:24:26 42° NNE 16:31:17 10° E
Cosmos 1238 Rocket 4.3 16:22:28 10° NNW 16:26:12 37° W 16:29:22 10° SSW
NOSS 3-2 (A) 4.4 16:20:31 10° NW 16:27:04 42° NNE 16:34:20 11° E
Cosmos 1452 Rocket 4.4 16:25:54 10° N 16:30:27 28° NE 16:34:59 10° ESE
Cosmos 1666 Rocket 3.5 16:26:28 10° N 16:30:52 73° E 16:35:11 10° SSE
Cosmos 1328 Rocket 4.3 16:27:00 10° SSE 16:30:53 31° E 16:34:46 10° NNE
Cosmos 2221 3.6 16:27:27 10° SSW 16:31:39 47° WNW 16:35:54 10° N
Cosmos 1933 Rocket 4.3 16:27:52 10° N 16:31:42 29° ENE 16:35:31 10° SE
Cosmos 2278 Rocket 4.2 16:31:08 10° N 16:33:02 12° N 16:34:57 10° NNE
Cosmos 1371 Rocket 3.9 16:28:09 10° NNW 16:33:22 67° ENE 16:38:31 10° SE
Cosmos 44 4.2 16:30:39 10° NNW 16:34:17 24° NNE 16:36:38 16° ENE
Okean O Rocket 3.4 16:32:06 10° SSW 16:36:09 36° W 16:40:12 10° NNW
COSMO-SKYMED 1 3.8 16:33:35 12° NE 16:36:25 21° E 16:39:44 10° SE
Cosmos 2227 4.3 16:31:37 10° NNW 16:37:19 55° NE 16:42:57 10° SE
APEX 3.8 16:39:07 10° S 16:41:48 25° ESE 16:42:41 22° E
Cosmos 1633 3.0 16:43:19 10° NNW 16:46:57 65° W 16:50:32 10° S
CZ-4B R/B 4.0 16:45:03 10° NNW 16:47:35 20° WNW 16:50:09 10° WSW
Cosmos 2112 Rocket 4.1 16:45:29 10° S 16:50:32 55° ESE 16:55:29 11° NNE
Cosmos 1464 Rocket 4.0 16:45:34 10° N 16:51:45 84° W 16:57:52 10° S
CORIOLIS 4.3 16:46:40 10° SSE 16:52:06 84° WSW 16:57:36 10° NNW
CSL-04 Rocket 4.0 16:48:16 10° SE 16:53:11 40° ENE 16:58:05 10° N
Cosmos 1356 Rocket 3.9 16:49:29 10° SSW 16:53:39 63° WNW 16:57:56 10° N
Ariane Rocket 4.1 16:52:40 20° E 16:54:09 22° ENE 16:58:01 10° N
Cosmos 1680 Rocket 3.5 16:50:27 10° SSW 16:55:37 69° ESE 17:00:50 10° NNE
Meteor 2-11 Rocket 4.4 16:49:57 10° N 16:56:08 80° E 17:02:17 10° SSE
Cosmos 1606 3.8 16:54:20 10° SE 16:56:56 23° E 16:56:56 23° E
NOAA 12 4.1 16:53:32 10° SSE 16:58:53 86° ENE 17:04:15 10° NNW
Cosmos 2369 Rocket 4.4 16:56:38 10° NW 16:59:08 13° NNW 17:01:38 10° N
Cosmos 1470 Rocket 3.5 16:57:52 10° N 17:02:23 72° ENE 17:06:51 10° SSE
YAOGAN 1 3.0 16:58:38 10° SE 17:02:40 39° ENE 17:06:44 10° N
GEOS 3 Rocket 4.4 17:00:52 22° ENE 17:03:17 32° ESE 17:07:58 10° S
CZ-4 R/B 1.5 17:00:26 10° SE 17:04:23 48° ENE 17:08:15 10° N
Cosmos 1939 Rocket 4.0 17:06:33 26° NE 17:06:33 26° NE 17:09:31 10° N
Cosmos 1943 Rocket 4.4 17:04:57 10° NW 17:07:10 12° NNW 17:09:23 10° N
SMAP 4.0 17:02:54 10° S 17:07:25 51° W 17:12:00 10° NNW
Meteor 1-20 Rocket 4.4 17:02:22 10° N 17:08:04 50° ENE 17:13:41 10° SE
USA 215 3.5 17:04:32 21° ENE 17:08:55 59° N 17:15:19 10° WNW
Cosmos 1980 Rocket 2.2 17:04:24 10° SSW 17:09:59 61° ESE 17:14:10 18° NE
Cosmos 1862 4.3 17:06:29 10° NNW 17:10:21 48° W 17:14:12 10° S
SL-16 R/B 3.3 17:07:52 10° SSE 17:12:09 23° ESE 17:12:09 23° ESE
Cosmos 2346 Rocket 4.4 17:06:10 10° S 17:12:18 65° E 17:18:24 10° NNE
ERBS 2.7 17:09:10 10° W 17:12:26 52° NNW 17:13:28 36° NE
Meteor 1-25 Rocket 4.3 17:07:57 10° N 17:13:33 54° ENE 17:19:10 10° SSE
NOSS 3-2 (C) 4.3 17:07:39 10° NW 17:14:25 47° NNE 17:18:47 25° E
Cosmos 1933 3.6 17:12:02 10° SSE 17:15:54 45° E 17:17:22 31° NE
Lacrosse 4 Rocket 2.1 17:13:23 10° WSW 17:17:19 48° NW 17:19:58 19° NNE
Cosmos 2322 Rocket 3.5 17:13:50 10° SSE 17:17:03 21° ESE 17:17:03 21° ESE
CZ-2D R/B 4.4 17:22:52 27° NNE 17:22:52 27° NNE 17:25:07 10° N
NOSS 2-3 (E) 3.8 17:17:22 10° SW 17:21:53 86° NW 17:24:53 26° NE
SeaSat 1 2.4 17:17:26 10° SSE 17:22:22 87° SW 17:27:21 10° NNW
Cosmos 923 Rocket 4.4 17:17:45 10° SW 17:22:54 62° WNW 17:27:55 11° NNE
Cosmos 1869 Rocket 4.2 17:19:21 10° N 17:22:39 33° NE 17:22:39 33° NE
Cosmos 2056 Rocket 4.0 17:19:33 10° NNW 17:24:37 60° WSW 17:29:43 10° S
SKYMED 2 3.6 17:22:17 23° NNE 17:24:53 56° E 17:29:10 10° S
USA 229 DEB 4.2 17:19:17 10° WSW 17:25:50 55° NNW 17:30:48 19° NE
USA 229 4.2 17:19:23 10° WSW 17:25:56 55° NNW 17:30:54 20° NE
BREEZE-M DEB (TANK) 2.6 17:19:59 10° W 17:27:00 63° S 17:27:56 42° SE
Cosmos 2263 Rocket 2.1 17:22:09 10° NNW 17:27:45 86° ENE 17:33:20 10° SSE
NOSS 3-1 (C) 4.0 17:22:11 10° WSW 17:27:54 54° NNW 17:32:29 20° NE
NOSS 3-1 (A) 3.7 17:25:04 10° WSW 17:30:49 67° NW 17:35:10 23° NE
CZ-4 R/B 4.4 17:26:51 10° SSE 17:31:00 86° WSW 17:35:12 10° NNW
NOSS 2-3 (D) 3.9 17:27:10 10° SW 17:31:41 80° NW 17:34:17 30° NE
YAOGAN 6 2.7 17:31:27 10° S 17:34:56 72° WSW 17:38:27 10° NNW
Timation 1 Rocket 4.3 17:34:26 10° NNW 17:40:28 84° WSW 17:46:28 10° SSE
H-2A R/B 3.8 17:43:10 18° NNE 17:43:10 18° NNE 17:44:56 10° N
Cosmos 2369 4.5 17:40:46 10° SW 17:46:16 49° NW 17:50:38 16° NNE
Cosmos 1697 Rocket 3.4 17:41:31 10° SW 17:47:01 51° NW 17:51:13 17° NNE
CENTAUR R/B 3.3 17:41:05 10° NW 17:48:28 53° NNE 17:51:27 37° E
Envisat 4.1 17:44:58 10° S 17:49:51 46° W 17:54:45 10° NNW
Cosmos 1400 Rocket 4.4 17:47:47 10° S 17:49:31 24° SSE 17:49:31 24° SSE
Cosmos 1151 Rocket 3.9 17:48:11 10° SSW 17:52:26 49° WNW 17:56:43 10° N
Meteor 1-14 Rocket 4.2 17:47:13 10° N 17:53:15 76° ENE 17:59:13 10° SSE
IRS-1A Rocket 4.3 17:57:30 48° ESE 17:58:52 61° ENE 18:04:35 10° N
Cosmos 158 Rocket 4.2 17:54:14 10° SW 17:59:27 68° WNW 18:02:05 29° NNE
Cosmos 1420 Rocket 4.5 17:58:36 10° NNW 18:03:43 59° WSW 18:08:47 10° S
Cosmos 1634 Rocket 4.1 18:01:56 10° NNW 18:08:06 72° W 18:14:13 10° S
Cosmos 1844 Rocket 3.1 18:03:47 10° NNW 18:08:24 45° NNE 18:08:24 45° NNE
Geosat 4.0 18:10:04 54° NNE 18:11:13 79° WNW 18:16:15 10° SW
ATLAS 3B R/B 2.8 18:05:56 10° NW 18:12:24 50° NNE 18:12:57 49° NE
COSMO-SKYMED 1 3.3 18:10:49 28° N 18:12:53 52° WNW 18:17:06 10° SW
Cosmos 1452 Rocket 3.9 18:07:46 10° NNW 18:13:00 62° WSW 18:16:36 20° S
ATLAS 2AS CENTAUR R/B 4.5 18:07:15 10° SSE 18:09:49 19° SSE 18:09:49 19° SSE
Cosmos 2228 Rocket 3.5 18:10:32 10° SSW 18:14:59 64° WNW 18:16:06 47° NNW
USA 116 4.4 18:14:06 44° N 18:15:40 77° WNW 18:20:52 10° SSW
USA 238 DEB 3.8 18:08:51 10° NW 18:16:01 86° SW 18:18:44 43° SE
Cosmos 44 3.5 18:11:39 10° NW 18:15:05 54° NW 18:15:05 54° NW
USA 238 3.8 18:08:57 10° NW 18:16:07 87° SW 18:18:47 44° SE
NOSS 3-2 (A) 3.9 18:11:28 10° NW 18:18:49 90° NE 18:21:46 44° SE
Cosmos 2278 Rocket 3.8 18:14:53 10° NNW 18:17:40 20° N 18:17:40 20° N
COSMOS 2455 3.9 18:16:27 10° S 18:19:46 31° SSE 18:19:46 31° SSE
Cosmos 2279 Rocket 3.9 18:17:39 10° N 18:23:55 85° W 18:30:10 10° S
MOS 1 4.4 18:29:42 62° N 18:29:42 62° N 18:34:26 10° NNW
Ariane Rocket 3.1 18:32:52 71° W 18:32:52 71° W 18:37:45 10° NNW
CZ-4 R/B 4.0 18:36:34 10° SW 18:39:38 20° W 18:42:41 10° NW
GEOS 3 Rocket 3.9 18:42:00 66° WNW 18:42:00 66° WNW 18:46:50 10° WSW
USA 215 3.1 18:51:53 86° NNW 18:51:53 86° NNW 18:58:19 10° WNW
Cosmos 1980 Rocket 3.6 18:49:13 10° WSW 18:54:21 34° NW 18:55:57 29° NNW
SL-16 R/B 2.9 18:50:05 10° SW 18:54:04 46° SW 18:54:04 46° SW
Lacrosse 4 Rocket 4.1 18:54:49 10° WNW 18:56:17 13° NW 18:56:17 13° NW
Cosmos 2322 Rocket 3.4 18:55:51 10° SW 18:58:55 34° SW 18:58:55 34° SW
NOSS 3-2 (C) 4.0 18:58:37 10° NW 19:05:59 77° SW 19:06:15 76° SSW
H-2A R/B 4.3 19:23:47 18° NNW 19:23:47 18° NNW 19:25:04 10° NNW
CENTAUR R/B 3.4 19:31:52 10° NW 19:38:39 63° W 19:38:39 63° W
ATLAS 3B R/B 4.1 19:56:45 10° NW 20:00:12 32° WNW 20:00:12 32° WNW
